User: anonymous   Login
Location: Newark
(42.8481°N, 0.4872°E)
Time: 12:32:35
(UTC+00:00)
Language:

SR - Orbit

View from above orbital plane
View from above orbital plane
View from above satellite
View from above satellite

Ground track
Ground track

The orbit data is extracted from the following two-line orbital elements,

1    46U 60007B   21138.28409695  .00000056  00000-0  33907-4 0  9998
2    46  66.6903 221.7255 0216847 242.5514 115.3396 14.49398471187629
Epoch (UTC): 18 May 2021 06:49:05
Eccentricity: 0.0216847
inclination: 66.6903°
perigee height: 573 km
apogee height: 882 km
right ascension of ascending node: 221.7255°
argument of perigee: 242.5514°
revolutions per day: 14.49398471
mean anomaly at epoch: 115.3396°
orbit number at epoch: 18762

The dashed part of the orbit path shows where the satellite is in the earth's shadow,  

DLR